• în România
  • Lista ţărilor
  • Pe 7 zile
  • Temperatura apei
  • Hartă satelitară
  • Meteo pe hartă
  • Widget-uri
  • user-avatar
    Intrare

    Meteo pe oră la Tirana

    Astăzi, 24 Mai, Joi

    Timp Temperatura Precipitaţii Vânt Presiune Umiditate
    00:00 +20°C° 0,2 mm 1 m/s 752 mmHg 80%
    01:00 +19°C° 0 mm 1 m/s 752 mmHg 81%
    02:00 +19°C° 0 mm 1 m/s 752 mmHg 81%
    03:00 +18°C° 0 mm 1 m/s 753 mmHg 81%
    04:00 +18°C° 0 mm 1 m/s 753 mmHg 81%
    05:00 +20°C° 0 mm 1 m/s 753 mmHg 77%
    06:00 +21°C° 0 mm 1 m/s 753 mmHg 72%
    07:00 +23°C° 0 mm 1 m/s 753 mmHg 67%
    08:00 +24°C° 0 mm 2 m/s 753 mmHg 64%
    09:00 +25°C° 0 mm 2 m/s 753 mmHg 60%
    10:00 +26°C° 0 mm 3 m/s 753 mmHg 57%
    11:00 +27°C° 0,1 mm 4 m/s 753 mmHg 57%
    12:00 +27°C° 0,1 mm 4 m/s 752 mmHg 58%
    13:00 +27°C° 0,1 mm 5 m/s 752 mmHg 58%
    14:00 +27°C° 0,2 mm 5 m/s 752 mmHg 61%
    15:00 +27°C° 0,2 mm 5 m/s 752 mmHg 63%
    16:00 +26°C° 0,2 mm 5 m/s 751 mmHg 65%
    17:00 +25°C° 0,1 mm 4 m/s 752 mmHg 72%
    18:00 +22°C° 0,1 mm 4 m/s 752 mmHg 78%
    19:00 +21°C° 0,1 mm 3 m/s 752 mmHg 84%
    20:00 +20°C° 0 mm 2 m/s 752 mmHg 85%
    21:00 +19°C° 0 mm 2 m/s 752 mmHg 86%
    22:00 +20°C° 0 mm 1 m/s 752 mmHg 87%
    23:00 +20°C° 0 mm 1 m/s 752 mmHg 86%

    Mâine, 25 Mai, Vineri

    Timp Temperatura Precipitaţii Vânt Presiune Umiditate
    00:00 +19°C° 0 mm 1 m/s 752 mmHg 85%
    01:00 +19°C° 0 mm 1 m/s 752 mmHg 84%
    02:00 +18°C° 0 mm 2 m/s 752 mmHg 83%
    03:00 +18°C° 0 mm 2 m/s 752 mmHg 82%
    04:00 +18°C° 0 mm 2 m/s 752 mmHg 82%
    05:00 +19°C° 0 mm 2 m/s 752 mmHg 76%
    06:00 +22°C° 0 mm 1 m/s 752 mmHg 71%
    07:00 +24°C° 0 mm 1 m/s 752 mmHg 66%
    08:00 +26°C° 0 mm 1 m/s 752 mmHg 61%
    09:00 +27°C° 0 mm 2 m/s 752 mmHg 56%
    10:00 +29°C° 0 mm 2 m/s 752 mmHg 50%
    11:00 +29°C° 0 mm 3 m/s 752 mmHg 50%
    12:00 +29°C° 0 mm 3 m/s 752 mmHg 50%
    13:00 +30°C° 0 mm 4 m/s 752 mmHg 50%
    14:00 +29°C° 0,1 mm 4 m/s 752 mmHg 52%
    15:00 +29°C° 0,1 mm 5 m/s 751 mmHg 55%
    16:00 +28°C° 0,1 mm 5 m/s 751 mmHg 58%
    17:00 +27°C° 0,1 mm 4 m/s 752 mmHg 65%
    18:00 +25°C° 0,1 mm 3 m/s 752 mmHg 72%
    19:00 +22°C° 0,1 mm 3 m/s 752 mmHg 78%
    20:00 +22°C° 0 mm 3 m/s 752 mmHg 78%
    21:00 +21°C° 0 mm 2 m/s 753 mmHg 78%
    22:00 +20°C° 0 mm 2 m/s 753 mmHg 78%
    23:00 +20°C° 0 mm 2 m/s 753 mmHg 77%

    Poimâine, 26 Mai, Sâmbătă

    Timp Temperatura Precipitaţii Vânt Presiune Umiditate
    00:00 +20°C° 0 mm 2 m/s 753 mmHg 76%
    01:00 +20°C° 0 mm 2 m/s 753 mmHg 75%
    02:00 +19°C° 0 mm 2 m/s 753 mmHg 75%
    03:00 +19°C° 0 mm 2 m/s 753 mmHg 74%
    04:00 +19°C° 0 mm 2 m/s 753 mmHg 74%
    05:00 +21°C° 0 mm 2 m/s 754 mmHg 71%
    06:00 +23°C° 0 mm 2 m/s 754 mmHg 67%
    07:00 +25°C° 0 mm 2 m/s 754 mmHg 64%
    08:00 +27°C° 0 mm 2 m/s 754 mmHg 58%
    09:00 +28°C° 0 mm 2 m/s 754 mmHg 53%
    10:00 +30°C° 0 mm 2 m/s 754 mmHg 47%
    11:00 +30°C° 0,1 mm 3 m/s 754 mmHg 46%
    12:00 +31°C° 0,1 mm 3 m/s 754 mmHg 45%
    13:00 +32°C° 0,1 mm 4 m/s 754 mmHg 44%
    14:00 +32°C° 0,1 mm 4 m/s 754 mmHg 46%
    15:00 +30°C° 0,1 mm 5 m/s 754 mmHg 49%
    16:00 +30°C° 0,1 mm 5 m/s 753 mmHg 51%
    17:00 +28°C° 0,1 mm 4 m/s 754 mmHg 59%
    18:00 +26°C° 0,1 mm 4 m/s 754 mmHg 66%
    19:00 +24°C° 0,1 mm 3 m/s 754 mmHg 74%
    20:00 +24°C° 0 mm 3 m/s 754 mmHg 74%
    21:00 +23°C° 0 mm 2 m/s 755 mmHg 74%
    22:00 +23°C° 0 mm 2 m/s 755 mmHg 74%
    23:00 +21°C° 0 mm 2 m/s 755 mmHg 73%

    27 Mai, Duminică

    Timp Temperatura Precipitaţii Vânt Presiune Umiditate
    00:00 +21°C° 0 mm 2 m/s 755 mmHg 73%
    01:00 +21°C° 0 mm 2 m/s 755 mmHg 73%
    02:00 +20°C° 0 mm 2 m/s 755 mmHg 72%
    03:00 +20°C° 0 mm 2 m/s 755 mmHg 72%
    04:00 +20°C° 0 mm 2 m/s 755 mmHg 72%
    05:00 +23°C° 0 mm 2 m/s 755 mmHg 69%
    06:00 +24°C° 0 mm 2 m/s 755 mmHg 65%
    07:00 +26°C° 0 mm 2 m/s 755 mmHg 61%
    08:00 +28°C° 0 mm 2 m/s 755 mmHg 56%
    09:00 +29°C° 0 mm 2 m/s 755 mmHg 50%
    10:00 +31°C° 0 mm 1 m/s 754 mmHg 45%
    11:00 +31°C° 0 mm 3 m/s 754 mmHg 44%
    12:00 +33°C° 0 mm 4 m/s 754 mmHg 43%
    13:00 +33°C° 0 mm 5 m/s 754 mmHg 42%
    14:00 +33°C° 0 mm 5 m/s 754 mmHg 45%
    15:00 +32°C° 0 mm 5 m/s 754 mmHg 49%
    16:00 +30°C° 0 mm 5 m/s 754 mmHg 53%
    17:00 +28°C° 0 mm 4 m/s 754 mmHg 61%
    18:00 +27°C° 0 mm 3 m/s 754 mmHg 68%
    19:00 +25°C° 0 mm 2 m/s 754 mmHg 76%
    20:00 +24°C° 0 mm 2 m/s 755 mmHg 75%
    21:00 +24°C° 0 mm 1 m/s 755 mmHg 75%
    22:00 +23°C° 0 mm 1 m/s 755 mmHg 75%
    23:00 +23°C° 0 mm 1 m/s 755 mmHg 74%

    28 Mai, Luni

    Timp Temperatura Precipitaţii Vânt Presiune Umiditate
    00:00 +23°C° 0 mm 1 m/s 755 mmHg 73%
    01:00 +22°C° 0 mm 1 m/s 754 mmHg 72%
    02:00 +22°C° 0 mm 1 m/s 754 mmHg 71%
    03:00 +22°C° 0 mm 1 m/s 755 mmHg 71%
    04:00 +21°C° 0 mm 2 m/s 755 mmHg 71%
    05:00 +23°C° 0 mm 1 m/s 755 mmHg 67%
    06:00 +25°C° 0 mm 1 m/s 755 mmHg 64%
    07:00 +27°C° 0 mm 1 m/s 755 mmHg 61%
    08:00 +28°C° 0 mm 1 m/s 755 mmHg 57%
    09:00 +30°C° 0 mm 1 m/s 755 mmHg 53%
    10:00 +31°C° 0 mm 1 m/s 755 mmHg 49%
    11:00 +31°C° 0,1 mm 2 m/s 755 mmHg 48%
    12:00 +32°C° 0,1 mm 2 m/s 754 mmHg 47%
    13:00 +33°C° 0,1 mm 3 m/s 754 mmHg 47%
    14:00 +33°C° 0,1 mm 4 m/s 754 mmHg 49%
    15:00 +32°C° 0,1 mm 4 m/s 754 mmHg 51%
    16:00 +32°C° 0,1 mm 4 m/s 753 mmHg 53%
    17:00 +29°C° 0 mm 4 m/s 754 mmHg 59%
    18:00 +27°C° 0 mm 3 m/s 754 mmHg 66%
    19:00 +25°C° 0 mm 3 m/s 754 mmHg 73%
    20:00 +24°C° 0 mm 2 m/s 754 mmHg 73%
    21:00 +24°C° 0 mm 2 m/s 754 mmHg 73%
    22:00 +23°C° 0 mm 2 m/s 754 mmHg 73%
    23:00 +23°C° 0 mm 2 m/s 754 mmHg 72%

    29 Mai, Marţi

    Timp Temperatura Precipitaţii Vânt Presiune Umiditate
    00:00 +23°C° 0 mm 2 m/s 754 mmHg 72%
    01:00 +21°C° 0 mm 2 m/s 754 mmHg 71%
    02:00 +21°C° 0 mm 2 m/s 754 mmHg 71%
    03:00 +21°C° 0 mm 2 m/s 754 mmHg 71%
    04:00 +20°C° 0 mm 2 m/s 754 mmHg 71%
    05:00 +23°C° 0 mm 2 m/s 754 mmHg 68%
    06:00 +25°C° 0 mm 2 m/s 754 mmHg 66%
    07:00 +26°C° 0 mm 2 m/s 754 mmHg 63%
    08:00 +28°C° 0 mm 2 m/s 754 mmHg 58%
    09:00 +29°C° 0 mm 1 m/s 754 mmHg 53%
    10:00 +31°C° 0 mm 1 m/s 754 mmHg 47%
    11:00 +31°C° 0 mm 2 m/s 754 mmHg 46%
    12:00 +32°C° 0 mm 2 m/s 754 mmHg 45%
    13:00 +33°C° 0 mm 3 m/s 753 mmHg 44%
    14:00 +33°C° 0,1 mm 3 m/s 753 mmHg 45%
    15:00 +32°C° 0,1 mm 4 m/s 753 mmHg 47%
    16:00 +32°C° 0,1 mm 4 m/s 753 mmHg 48%
    17:00 +29°C° 0,1 mm 4 m/s 753 mmHg 55%
    18:00 +27°C° 0,1 mm 4 m/s 753 mmHg 63%
    19:00 +25°C° 0,1 mm 3 m/s 753 mmHg 70%
    20:00 +24°C° 0 mm 3 m/s 753 mmHg 70%
    21:00 +24°C° 0 mm 3 m/s 753 mmHg 71%
    22:00 +23°C° 0 mm 2 m/s 753 mmHg 71%
    23:00 +23°C° 0 mm 2 m/s 753 mmHg 71%
    Arată mai mult